GW1885 Weather Reports


Display with metric or nautical units.
time (UTC)temp
F
wind
direction
speed
MPH
gust
MPH
rain 1hr
in
rain 24hr
in
rain mn
in
humidity
%
barometer
mb
20260906031503 56 290 5.0 16.0 0.02 0.54 0.24 92 1012.9
20260906031003 56 301 6.0 16.0 0.02 0.54 0.24 92 1012.7
20260906030504 56 298 7.0 16.0 0.02 0.55 0.24 93 1012.8
20260906030003 56 287 7.0 18.0 0.02 0.56 0.24 93 1012.5
20260906025503 56 282 8.0 21.0 0.02 0.57 0.24 93 1012.3
20260906025004 56 283 8.0 21.0 0.02 0.57 0.24 93 1012.2
20260906024503 56 300 8.0 21.0 0.02 0.57 0.24 94 1012.2
20260906024003 56 304 6.0 16.0 0.02 0.57 0.24 94 1012.0
20260906023504 56 292 5.0 14.0 0.02 0.57 0.24 94 1012.0
20260906023003 56 289 5.0 13.0 0.01 0.57 0.23 93 1011.8
20260906022503 56 295 4.0 13.0 0.00 0.56 0.22 93 1011.8
20260906022004 56 304 5.0 13.0 0.01 0.56 0.22 93 1011.9
20260906021503 56 305 5.0 15.0 0.01 0.57 0.22 93 1011.7
20260906021005 56 296 5.0 15.0 0.01 0.57 0.22 92 1011.6
20260906020503 56 291 4.0 11.0 0.01 0.57 0.22 92 1011.7
20260906020003 56 305 4.0 11.0 0.01 0.57 0.22 92 1011.7
20260906015503 56 309 4.0 14.0 0.01 0.57 0.22 92 1011.5
20260906015025 56 305 5.0 14.0 0.02 0.57 0.22 92 1011.4
20260906014503 56 322 5.0 16.0 0.02 0.56 0.22 93 1011.5
20260906014003 56 318 5.0 16.0 0.03 0.56 0.22 93 1011.4
20260906013504 56 288 5.0 16.0 0.05 0.56 0.22 93 1011.1
20260906013024 56 286 5.0 16.0 0.05 0.56 0.22 93 1011.2
20260906012504 56 282 4.0 14.0 0.05 0.56 0.22 94 1011.0
20260906012003 56 299 4.0 11.0 0.05 0.56 0.21 94 1011.2
20260906011503 56 312 3.0 9.0 0.05 0.56 0.21 95 1011.0
20260906011003 56 317 3.0 13.0 0.05 0.56 0.21 95 1011.1
20260906010504 56 327 4.0 13.0 0.09 0.56 0.21 95 1011.1
20260906010004 55 325 3.0 11.0 0.14 0.56 0.21 96 1011.1
20260906005525 55 337 3.0 11.0 0.14 0.56 0.21 96 1010.9
20260906005004 55 10 3.0 10.0 0.13 0.55 0.20 96 1010.9
20260906004504 55 18 2.0 8.0 0.12 0.54 0.19 96 1011.0
20260906004026 55 42 2.0 8.0 0.12 0.53 0.19 96 1010.8
20260906003504 55 5 2.0 7.0 0.10 0.52 0.17 96 1011.0
20260906003004 55 349 2.0 7.0 0.10 0.51 0.17 96 1011.0
20260906002504 55 331 3.0 10.0 0.11 0.51 0.17 96 1011.0
20260906002003 55 300 3.0 10.0 0.11 0.51 0.17 96 1011.2
20260906001503 55 292 3.0 13.0 0.11 0.54 0.17 96 1011.1
20260906001003 55 317 3.0 13.0 0.11 0.54 0.16 95 1011.3
20260906000503 55 327 3.0 9.0 0.07 0.50 0.13 95 1011.4
20260906000026 55 24 2.0 9.0 0.02 0.45 0.07 95 1011.1
20260905235503 55 59 2.0 9.0 0.02 0.45 0.07 95 1011.0
20260905235004 55 24 2.0 7.0 0.07 0.46 0.07 95 1011.1
20260905234504 55 11 1.0 4.0 0.07 0.46 0.07 96 1011.1
20260905234004 55 7 2.0 4.0 0.06 0.46 0.07 96 1011.1
20260905233504 55 342 2.0 6.0 0.07 0.47 0.07 96 1011.1
20260905233025 55 358 2.0 6.0 0.07 0.47 0.07 96 1011.0
20260905232504 55 23 2.0 6.0 0.06 0.46 0.06 96 1011.1
20260905232003 55 352 2.0 7.0 0.06 0.46 0.06 96 1010.9
20260905231504 54 354 2.0 7.0 0.06 0.46 0.06 96 1011.0
20260905231003 54 52 2.0 7.0 0.06 0.46 0.06 96 1011.0
20260905230503 54 302 2.0 8.0 0.06 0.46 0.06 96 1010.9
20260905230004 54 289 2.0 14.0 0.06 0.46 0.06 95 1011.0
20260905225503 55 7 2.0 14.0 0.06 0.46 0.06 94 1011.0
20260905225003 55 32 2.0 6.0 0.01 0.41 0.00 93 1011.1
20260905224525 55 9 3.0 8.0 0.03 0.41 0.00 93 1011.0
20260905224003 55 28 3.0 8.0 0.03 0.42 0.00 93 1011.0
20260905223525 55 30 2.0 6.0 0.03 0.41 0.00 94 1011.1
20260905223003 55 27 2.0 6.0 0.03 0.41 0.00 94 1011.0
20260905222503 55 33 2.0 6.0 0.03 0.41 0.00 95 1010.9
20260905222004 55 55 2.0 4.0 0.04 0.42 0.00 95 1010.8
20260905221504 55 29 2.0 6.0 0.04 0.46 0.00 94 1011.0
20260905221005 55 335 2.0 9.0 0.04 0.46 0.00 94 1011.0
20260905220503 55 313 2.0 9.0 0.05 0.46 0.00 94 1011.0
20260905220007 56 352 2.0 8.0 0.05 0.46 0.00 94 1011.0
20260905215503 56 28 3.0 8.0 0.05 0.47 0.46 94 1011.0
20260905215004 56 34 2.0 8.0 0.05 0.49 0.46 94 1011.0
20260905214503 56 36 1.0 3.0 0.02 0.47 0.44 94 1011.0
20260905214003 55 347 2.0 6.0 0.02 0.47 0.44 93 1010.6
20260905213503 56 318 2.0 9.0 0.02 0.48 0.44 93 1010.7
20260905213024 56 353 2.0 9.0 0.02 0.48 0.44 94 1010.7
20260905212504 56 11 1.0 3.0 0.02 0.48 0.43 94 1010.8
20260905212004 56 350 1.0 4.0 0.02 0.48 0.43 94 1010.6
20260905211504 56 2 1.0 4.0 0.02 0.48 0.43 93 1010.6
20260905211004 57 318 1.0 6.0 0.02 0.48 0.43 93 1010.6
20260905210503 57 32 2.0 6.0 0.01 0.47 0.42 92 1010.7
20260905210004 57 330 2.0 13.0 0.01 0.47 0.41 91 1010.8
20260905205503 57 314 3.0 13.0 0.01 0.47 0.41 90 1010.7
20260905205004 57 322 2.0 13.0 0.01 0.47 0.41 91 1010.6
20260905204503 57 332 2.0 7.0 0.01 0.47 0.41 91 1010.5
20260905204003 57 354 2.0 6.0 0.01 0.47 0.41 92 1010.7
20260905203524 57 3 1.0 6.0 0.01 0.47 0.41 92 1010.6
20260905203003 57 17 1.0 6.0 0.01 0.47 0.41 92 1010.6
20260905202503 57 37 2.0 6.0 0.01 0.47 0.41 91 1010.6
20260905202025 57 51 1.0 4.0 0.00 0.46 0.41 91 1010.7
20260905201504 57 43 2.0 4.0 0.00 0.46 0.41 91 1010.7
20260905201004 57 36 2.0 4.0 0.00 0.46 0.41 91 1010.7
20260905200524 57 61 2.0 3.0 0.00 0.46 0.41 91 1010.8
20260905200003 57 57 2.0 6.0 0.00 0.46 0.41 90 1010.6
20260905195524 57 25 2.0 6.0 0.00 0.46 0.41 91 1010.7
20260905195004 58 41 2.0 6.0 0.00 0.46 0.41 90 1010.5
20260905194504 57 53 2.0 6.0 0.00 0.46 0.41 90 1010.6
20260905194004 57 51 2.0 8.0 0.00 0.46 0.41 90 1010.7
20260905193503 57 51 2.0 8.0 0.00 0.46 0.41 90 1010.6
20260905193003 57 31 2.0 7.0 0.00 0.46 0.41 90 1010.6
20260905192503 57 10 2.0 7.0 0.00 0.47 0.41 90 1010.6
20260905192003 57 42 2.0 10.0 0.00 0.47 0.41 90 1010.6
20260905191524 57 42 2.0 10.0 0.00 0.48 0.41 91 1010.7
20260905191003 57 27 2.0 6.0 0.00 0.48 0.41 91 1010.6
20260905190503 57 36 2.0 6.0 0.00 0.48 0.41 91 1010.5
20260905190003 57 33 2.0 4.0 0.00 0.48 0.41 91 1010.6
20260905185503 57 356 2.0 6.0 0.00 0.48 0.41 91 1010.5
20260905185003 57 326 2.0 9.0 0.00 0.48 0.41 91 1010.6
20260905184504 57 343 2.0 9.0 0.00 0.48 0.41 91 1010.5
20260905184024 57 7 2.0 7.0 0.00 0.48 0.41 91 1010.5
20260905183525 57 6 2.0 4.0 0.00 0.48 0.41 91 1010.5
20260905183004 57 21 2.0 7.0 0.00 0.48 0.41 91 1010.4
20260905182503 57 54 2.0 7.0 0.00 0.49 0.41 91 1010.2
20260905182025 57 87 2.0 9.0 0.00 0.52 0.41 91 1010.4
20260905181524 57 215 2.0 9.0 0.00 0.55 0.41 91 1010.3
20260905181003 57 38 2.0 7.0 0.00 0.56 0.41 91 1010.1
20260905180504 57 37 2.0 7.0 0.00 0.57 0.41 91 1010.1
20260905180004 57 14 2.0 9.0 0.00 0.57 0.41 91 1010.1
20260905175503 57 356 2.0 13.0 0.00 0.57 0.41 90 1009.9
20260905175004 57 26 2.0 13.0 0.00 0.57 0.41 91 1010.0
20260905174503 57 65 2.0 7.0 0.00 0.57 0.41 91 1009.8
20260905174003 57 88 2.0 7.0 0.00 0.57 0.41 91 1009.8
20260905173503 57 48 2.0 6.0 0.00 0.57 0.41 90 1009.6
20260905173003 57 51 2.0 6.0 0.00 0.57 0.41 91 1009.8
20260905172504 57 83 2.0 8.0 0.00 0.58 0.41 92 1009.9
20260905172004 57 109 1.0 8.0 0.00 0.58 0.41 93 1009.9
20260905171503 57 118 1.0 4.0 0.00 0.58 0.41 94 1009.9
20260905171004 57 106 1.0 4.0 0.00 0.58 0.41 94 1009.8
20260905170504 57 98 1.0 3.0 0.00 0.58 0.41 94 1009.8
20260905170003 57 95 1.0 3.0 0.00 0.58 0.41 94 1009.6
20260905165504 57 94 1.0 4.0 0.00 0.58 0.41 93 1009.8
20260905165003 57 100 2.0 6.0 0.00 0.58 0.41 92 1009.9
20260905164524 57 93 2.0 6.0 0.00 0.58 0.41 91 1009.6
20260905164004 57 80 2.0 4.0 0.00 0.58 0.41 91 1009.5
20260905163503 57 78 2.0 6.0 0.00 0.58 0.41 89 1009.4
20260905163003 57 63 2.0 6.0 0.00 0.58 0.41 89 1009.4
20260905162504 57 46 2.0 6.0 0.00 0.58 0.41 89 1009.3
20260905162003 57 65 2.0 7.0 0.00 0.58 0.41 88 1009.4
20260905161524 57 84 2.0 7.0 0.00 0.58 0.41 87 1009.3
20260905161003 58 70 2.0 7.0 0.00 0.58 0.41 86 1009.2
20260905160525 58 65 2.0 6.0 0.00 0.58 0.41 87 1009.2
20260905160004 58 70 2.0 6.0 0.00 0.58 0.41 86 1009.2
20260905155504 58 59 2.0 6.0 0.00 0.58 0.41 87 1009.1
20260905155003 58 51 3.0 9.0 0.00 0.58 0.41 86 1009.2
20260905154502 58 47 2.0 9.0 0.00 0.58 0.41 87 1009.1
20260905154003 58 48 2.0 8.0 0.00 0.59 0.41 88 1009.0
20260905153503 58 64 3.0 8.0 0.00 0.59 0.41 88 1009.1
20260905153003 59 82 2.0 7.0 0.00 0.59 0.41 89 1009.0
20260905152503 58 59 2.0 6.0 0.00 0.59 0.41 89 1008.9
20260905152003 58 56 2.0 6.0 0.00 0.60 0.41 90 1008.9
20260905151504 58 69 2.0 9.0 0.00 0.61 0.41 91 1009.1
20260905151024 58 65 3.0 9.0 0.00 0.62 0.41 90 1009.2
20260905150503 58 64 3.0 9.0 0.00 0.63 0.41 90 1009.1
20260905150024 58 65 3.0 9.0 0.00 0.63 0.41 90 1008.9
20260905145524 58 68 3.0 9.0 0.00 0.63 0.41 91 1009.1
20260905145003 59 40 3.0 9.0 0.00 0.64 0.41 89 1009.3
20260905144504 59 28 3.0 10.0 0.00 0.65 0.41 88 1009.1
20260905144025 59 56 3.0 10.0 0.00 0.67 0.41 88 1009.0
20260905143503 59 59 2.0 7.0 0.00 0.69 0.41 90 1008.9
20260905143004 59 54 2.0 8.0 0.00 0.70 0.41 90 1009.1
20260905142503 58 58 2.0 9.0 0.00 0.72 0.41 91 1009.1
20260905142024 58 80 2.0 9.0 0.00 0.72 0.41 91 1009.2
20260905141503 58 95 2.0 8.0 0.00 0.74 0.41 90 1009.0
20260905141003 59 95 2.0 7.0 0.00 0.74 0.41 90 1009.1
20260905140502 58 72 2.0 6.0 0.00 0.76 0.41 93 1009.2
20260905140005 58 67 2.0 4.0 0.00 0.76 0.41 95 1008.9
20260905135503 56 67 2.0 4.0 0.00 0.77 0.41 95 1009.2
20260905135003 56 59 2.0 8.0 0.00 0.78 0.41 94 1009.4
20260905134503 56 73 2.0 8.0 0.01 0.80 0.41 93 1009.2
20260905134024 56 53 2.0 6.0 0.02 0.81 0.41 94 1009.4
20260905133503 55 19 2.0 6.0 0.03 0.82 0.41 94 1009.2
20260905133003 55 33 2.0 6.0 0.04 0.82 0.41 94 1009.3
20260905132503 55 89 1.0 6.0 0.06 0.82 0.41 94 1009.2
20260905131503 55 39 2.0 8.0 0.08 0.82 0.41 94 1009.1
20260905131004 55 36 2.0 8.0 0.08 0.82 0.41 94 1009.3
20260905130503 55 68 2.0 8.0 0.08 0.82 0.41 93 1009.0
20260905130004 54 195 3.0 8.0 0.08 0.82 0.41 94 1009.2
20260905125503 54 259 2.0 8.0 0.08 0.82 0.41 94 1009.3
20260905125004 54 307 2.0 7.0 0.08 0.82 0.40 94 1009.3
20260905124503 55 325 3.0 8.0 0.07 0.82 0.40 93 1009.3
20260905124003 55 335 3.0 8.0 0.07 0.81 0.39 93 1009.3
20260905123504 56 347 3.0 8.0 0.05 0.80 0.37 92 1009.5
20260905123004 56 355 3.0 8.0 0.04 0.80 0.37 91 1009.4
20260905122503 57 327 3.0 9.0 0.03 0.78 0.35 90 1009.3
20260905122004 58 4 3.0 9.0 0.02 0.78 0.34 90 1009.2
20260905121503 58 359 3.0 10.0 0.00 0.76 0.33 88 1009.2
20260905121005 59 346 3.0 10.0 0.00 0.76 0.33 86 1008.9
20260905120504 59 335 3.0 8.0 0.00 0.76 0.33 87 1009.0
20260905120004 59 355 4.0 11.0 0.00 0.76 0.33 87 1008.9
20260905115503 60 30 4.0 13.0 0.01 0.76 0.33 87 1008.9
20260905115004 60 336 4.0 13.0 0.01 0.76 0.32 86 1008.8
20260905114504 61 349 3.0 10.0 0.01 0.76 0.32 86 1008.8
20260905114004 61 52 3.0 7.0 0.01 0.76 0.32 89 1008.7
20260905113504 61 82 2.0 10.0 0.01 0.76 0.32 90 1008.6
20260905094504 59 325 4.0 16.0 0.06 0.72 0.28 91 1007.8
20260905094003 60 349 3.0 9.0 0.04 0.70 0.26 91 1007.3
20260905093503 59 333 3.0 9.0 0.04 0.70 0.26 92 1007.1
20260905093026 59 354 4.0 14.0 0.04 0.70 0.26 93 1007.4
20260905092504 59 19 4.0 14.0 0.04 0.70 0.26 93 1007.3
20260905092004 58 37 3.0 11.0 0.04 0.70 0.26 94 1007.1
20260905091505 58 10 3.0 10.0 0.04 0.70 0.25 94 1007.2
20260905091003 58 336 4.0 9.0 0.03 0.69 0.25 93 1007.0
20260905090504 59 310 4.0 10.0 0.02 0.69 0.24 94 1007.0
20260905090004 58 4 4.0 10.0 0.02 0.68 0.23 93 1007.2
20260905085504 59 46 3.0 9.0 0.01 0.67 0.22 93 1007.0
20260905085004 59 69 4.0 11.0 0.01 0.67 0.22 92 1006.7
20260905084503 60 78 4.0 11.0 0.00 0.67 0.22 88 1006.9
20260905084003 61 68 3.0 10.0 0.00 0.66 0.22 86 1007.0
20260905083525 61 349 3.0 15.0 0.00 0.66 0.22 87 1006.7
20260905083005 60 8 3.0 15.0 0.00 0.66 0.22 85 1006.5
20260905082506 60 349 3.0 8.0 0.00 0.66 0.22 87 1006.6
20260905082006 61 303 4.0 13.0 0.00 0.66 0.22 84 1006.5
20260905081525 62 340 4.0 13.0 0.00 0.66 0.22 82 1006.6
20260905081005 61 347 4.0 10.0 0.00 0.66 0.22 85 1006.5
20260905080504 60 327 5.0 14.0 0.00 0.66 0.22 84 1006.7
20260905080005 61 316 5.0 15.0 0.00 0.66 0.22 82 1006.5
20260905075505 62 308 4.0 15.0 0.00 0.66 0.22 81 1006.2
20260905075005 61 322 3.0 18.0 0.00 0.66 0.22 82 1006.2
20260905074525 61 336 4.0 18.0 0.00 0.66 0.22 83 1006.3
20260905074026 61 330 3.0 10.0 0.00 0.66 0.22 83 1006.1
20260905073504 61 299 4.0 11.0 0.00 0.66 0.22 84 1006.0
20260905073027 60 323 4.0 14.0 0.00 0.66 0.22 83 1006.0
20260905072526 60 323 4.0 14.0 0.00 0.66 0.22 84 1006.1
20260905072004 60 334 4.0 14.0 0.02 0.66 0.22 86 1005.9
20260905071505 59 9 4.0 14.0 0.02 0.66 0.22 86 1005.8
20260905071005 59 27 3.0 9.0 0.02 0.66 0.22 89 1005.9
20260905070526 59 295 4.0 21.0 0.02 0.66 0.22 90 1005.7
20260905070006 59 314 4.0 21.0 0.02 0.66 0.22 90 1005.7
20260905065505 58 360 3.0 10.0 0.02 0.66 0.22 91 1005.5
20260905065006 58 115 3.0 10.0 0.02 0.66 0.22 94 1005.5
20260905064504 58 8 3.0 9.0 0.02 0.66 0.22 95 1005.4
20260905064005 57 360 3.0 14.0 0.02 0.66 0.22 96 1005.3
20260905063505 57 2 3.0 14.0 0.02 0.66 0.22 96 1005.3
20260905063006 57 21 2.0 8.0 0.02 0.66 0.22 96 1005.4
20260905062505 58 33 2.0 8.0 0.03 0.66 0.22 96 1005.1
20260905062004 58 54 2.0 8.0 0.01 0.64 0.19 97 1005.0
20260905061504 57 78 2.0 8.0 0.01 0.64 0.19 97 1004.9
20260905061005 57 64 2.0 8.0 0.03 0.64 0.19 97 1005.2
20260905060504 57 57 3.0 7.0 0.03 0.64 0.19 97 1004.9
20260905060005 57 66 2.0 7.0 0.03 0.64 0.19 97 1004.9
20260905055526 57 26 2.0 8.0 0.03 0.64 0.19 97 1004.8
20260905055005 57 27 3.0 8.0 0.03 0.64 0.19 97 1004.6
20260905054505 57 62 3.0 9.0 0.03 0.64 0.19 97 1004.5
20260905054005 56 55 3.0 9.0 0.03 0.64 0.19 97 1004.4
20260905053504 56 5 3.0 13.0 0.04 0.64 0.19 98 1004.7
20260905053026 56 19 3.0 13.0 0.04 0.64 0.19 98 1004.5
20260905052504 56 73 3.0 11.0 0.03 0.64 0.19 98 1004.4
20260905052005 56 87 3.0 8.0 0.03 0.63 0.19 97 1004.3
20260905051525 56 79 2.0 6.0 0.02 0.63 0.18 97 1004.0
20260905051026 56 85 2.0 6.0 0.01 0.61 0.17 97 1003.9
20260905050504 56 83 2.0 6.0 0.01 0.61 0.17 97 1004.0
20260905050005 56 76 2.0 6.0 0.01 0.61 0.17 97 1003.8
20260905045504 56 81 3.0 9.0 0.01 0.61 0.17 97 1004.0
20260905045004 56 84 3.0 9.0 0.01 0.61 0.17 97 1004.0
20260905044505 56 91 3.0 8.0 0.01 0.61 0.17 97 1003.8
20260905044005 56 92 2.0 7.0 0.01 0.61 0.17 97 1003.8
20260905043505 56 83 2.0 6.0 0.00 0.61 0.16 97 1003.8
20260905043005 56 80 2.0 4.0 0.00 0.61 0.16 96 1003.8
20260905042526 56 78 2.0 6.0 0.00 0.61 0.16 96 1003.7
20260905042005 56 62 2.0 6.0 0.00 0.61 0.16 96 1003.7
20260905041504 56 52 2.0 7.0 0.00 0.61 0.16 95 1003.7
20260905041005 56 53 2.0 10.0 0.00 0.61 0.16 94 1003.6
20260905040504 56 58 3.0 10.0 0.00 0.61 0.16 95 1003.5
20260905040006 56 54 2.0 9.0 0.01 0.61 0.16 94 1003.6
20260905035505 57 60 2.0 8.0 0.03 0.61 0.16 94 1003.5
20260905035005 57 55 2.0 8.0 0.03 0.61 0.16 94 1003.4
20260905034525 57 58 2.0 8.0 0.03 0.61 0.16 94 1003.4
20260905034005 57 49 2.0 8.0 0.03 0.61 0.16 94 1003.3
20260905033525 57 16 2.0 6.0 0.03 0.61 0.16 95 1003.5
20260905033026 57 24 2.0 8.0 0.03 0.61 0.16 95 1003.4
20260905032504 57 53 3.0 8.0 0.03 0.61 0.16 96 1003.4
20260905032004 57 53 2.0 6.0 0.04 0.61 0.16 96 1003.3